Regional Weather Roundup
Issued by NWS Cleveland, OH

Home | Current Version | Previous Version | Graphics & Text | Print | Product List | Glossary On
Versions: 1 2 3 4 5 6 7 8 9 10 11 12 13 14 15 16 17 18 19 20 21 22 23 24 25 26 27 28 29 30 31 32 33 34 35 36 37 38 39 40 41 42 43 44 45 46 47 48 49 50
970
ASUS41 KCLE 262302
RWRCLE
OHIO REGIONAL WEATHER ROUNDUP
NATIONAL WEATHER SERVICE CLEVELAND, OH
700 PM EDT FRI MAY 26 2017

NOTE: "FAIR" INDICATES FEW OR NO CLOUDS BELOW 12,000 FEET WITH NO
SIGNIFICANT WEATHER AND/OR OBSTRUCTIONS TO VISIBILITY.

OHZ001>008-015>018-024>027-034-035-043-044-270000-
   NORTHWEST OHIO

CITY           SKY/WX    TMP DP  RH WIND       PRES   REMARKS
DEFIANCE       CLOUDY    70  55  59 SW6       29.87S
FINDLAY        CLOUDY    71  54  54 W6        29.87R
TOLEDO EXPRESS PTSUNNY   69  56  62 W5        29.86R
TOLEDO EXEC    CLOUDY    71  57  61 W5        29.87R
LIMA           CLOUDY    70  56  61 CALM      29.87F
$$

OHZ009>014-019>023-028>033-038-089-270000-
   NORTHEAST OHIO

CITY           SKY/WX    TMP DP  RH WIND       PRES   REMARKS
CLE-HOPKINS    CLOUDY    69  52  54 NW8       29.90S
CLE-LAKEFRONT  SUNNY     63  53  70 W6        29.88S
CUY CO. ARPT   MOSUNNY   64  50  59 W10       29.91R
LORAIN-ELYRIA  MOSUNNY   66  50  56 CALM      29.89S
ASHTABULA      CLOUDY    61  53  75 NW7       29.90R
AKRON-CANTON   PTSUNNY   66  54  65 NW6       29.91R
WOOSTER        CLOUDY    65  55  70 N6        29.90S
MANSFIELD      PTSUNNY   67  57  70 N3        29.88F
YOUNGSTOWN     PTSUNNY   63  50  62 W9        29.90R
$$

OHZ042-051>053-060>062-070>072-077>081-270000-
  SOUTHWEST OHIO

CITY           SKY/WX    TMP DP  RH WIND       PRES   REMARKS
CINC-COVINGTON MOSUNNY   76  61  59 S9        29.86F
CINC-LUNKEN    MOSUNNY   77  62  59 S8        29.86F
HAMILTON       MOSUNNY   79  60  52 VRB6      29.86F
DAYTON         MOSUNNY   75  55  49 S9        29.87F
WRIGHT-PAT AFB MOSUNNY   77  56  48 SW8       29.86S
DAYTON GENERAL SUNNY     77  54  44 S6        29.86S
WILMINGTON     SUNNY     75  58  55 SW14      29.88S
$$

OHZ036-037-039>041-045>050-054>059-063>069-073>076-082>088-270000-
  CENTRAL AND SOUTHEAST OHIO

CITY           SKY/WX    TMP DP  RH WIND       PRES   REMARKS
COLUMBUS       MOSUNNY   74  55  51 SW12      29.87F
OSU AIRPORT    SUNNY     74  56  53 SW7       29.88S
BOLTON FIELD   SUNNY     73  57  56 SW6       29.89S
RICKENBACK AFB SUNNY     73  56  54 SW6       29.87S
NEWARK         PTSUNNY   71  54  54 W6        29.87S
MARION         CLOUDY    69  54  58 W10       29.90R
LANCASTER      SUNNY     76  56  49 W8        29.89S
ZANESVILLE     PTSUNNY   72  55  55 W6        29.89S
NEW PHILLY     NOT AVBL
$$




USA.gov is the U.S. government's official web portal to all federal, state and local government web resources and services.